[[{"header":{"parameterUnit":"m.s-1","parameterCategory":2,"la1":30.2991,"la2":30.254,"lo1":-89.0895,"lo2":-89.0444,"dy":0.0017,"dx":0.0017,"nx":28,"ny":28,"refTime":"2023-07-18T21:00:00:Z","depth":"0","parameterNumber":2,"parameterNumberName":"U-component_of_CURRENTS"},"data":[0,0,0,0,0,0,0,0,0,0,0,0,0,0,0,0,0,0,0,0,0,0,0,0,0,0,0,0,0,0,0,0,0,0,0,0,0,0,0,0,0,0,0,0,0,0,0,0,0,0,0,0,0,0,0,0,0,0,-0.3892,-0.3892,0,-0.3934,-0.3934,-0.3935,-0.3864,-0.3861,-0.3859,-0.3857,-0.379,-0.379,-0.3791,0,0,0,0,0,0,0,0,0,0,0,0,0,-0.3826,-0.3827,-0.3891,-0.3892,-0.3893,-0.3934,-0.3934,-0.3935,-0.3864,-0.3861,-0.3859,-0.3856,-0.379,-0.379,-0.3791,0,0,0,0,0,0,0,0,0,0,0,0,0,-0.3858,-0.3827,-0.3891,-0.3864,-0.3862,-0.3934,-0.3934,-0.3935,-0.3865,-0.3861,-0.3858,-0.3855,-0.379,-0.379,-0.3791,-0.3862,0,0,-0.3792,-0.3793,0,0,0,0,0,0,0,0,-0.3856,-0.386,-0.3867,-0.3866,-0.3864,-0.3891,-0.3887,-0.3906,-0.3865,-0.3862,-0.3857,-0.3853,-0.3817,-0.3816,-0.383,-0.3859,-0.3856,-0.3792,-0.3793,-0.3793,-0.3793,0,0,0,0,0,0,0,-0.3854,-0.3859,-0.3907,-0.3868,-0.3866,-0.3875,-0.3875,-0.3891,-0.3855,-0.3862,-0.3857,-0.3866,-0.3815,-0.383,-0.3828,-0.3855,-0.3792,-0.3793,-0.3793,-0.3793,-0.3936,-0.394,0,0,0,0,0,0,-0.3852,-0.3857,-0.3905,-0.3908,-0.3853,-0.3879,-0.3879,-0.3885,-0.3857,-0.3851,-0.3869,-0.3862,-0.3831,-0.3827,-0.3825,-0.3872,-0.3793,-0.3793,-0.3794,-0.3933,-0.3937,-0.3941,0,0,0,0,0,0,-0.3851,-0.3856,-0.3904,-0.3884,-0.3891,-0.3883,-0.3891,-0.3887,-0.3888,-0.3864,-0.3854,-0.387,-0.3828,-0.3824,-0.3842,-0.3869,-0.3794,-0.3794,-0.3929,-0.3934,-0.3939,-0.3988,0,0,0,0,0,0,-0.3848,-0.3855,-0.3862,-0.3884,-0.3892,-0.3954,-0.3894,-0.3891,-0.39,-0.3892,-0.3863,-0.3854,-0.3825,-0.3842,-0.3843,-0.3869,-0.3794,-0.3924,-0.3931,-0.3937,-0.3982,-0.3994,-0.4005,0,0,0,0,0,-0.3846,-0.3872,-0.3862,-0.3868,-0.39,-0.3957,-0.3963,-0.3944,-0.3903,-0.3927,-0.3902,-0.3854,-0.3884,-0.3845,-0.3845,-0.3872,-0.3921,-0.3929,-0.3937,-0.3977,-0.3992,-0.4005,0,0,0,0,0,0,-0.3838,-0.3869,-0.3857,-0.3886,-0.3922,-0.3945,-0.3961,-0.3954,-0.3957,-0.3936,-0.3894,-0.3887,-0.3922,-0.3907,-0.3865,-0.3941,-0.3898,-0.3907,-0.3929,-0.3943,-0.3954,-0.3922,-0.3795,0,0,0,0,0,-0.3845,-0.387,-0.3903,-0.3926,-0.3942,-0.3953,-0.3971,-0.3969,-0.3976,-0.3972,-0.3956,-0.3948,-0.3965,-0.3955,-0.3977,-0.401,-0.3892,-0.4035,-0.4046,-0.4055,-0.4036,-0.3923,-0.3918,-0.3967,-0.3967,-0.3966,0,0,-0.385,-0.3866,-0.3882,-0.3927,-0.3941,-0.3998,-0.3954,-0.3993,-0.4029,-0.3968,-0.4,-0.3995,-0.399,-0.403,-0.4043,-0.4007,-0.3969,-0.4065,-0.4072,-0.4047,-0.393,-0.3924,-0.3918,-0.3972,-0.3971,-0.397,0,0,-0.3894,-0.3886,-0.3934,-0.3972,-0.4013,-0.4027,-0.4041,-0.4076,-0.4073,-0.412,-0.4087,-0.4083,-0.4121,-0.4103,-0.4102,-0.4194,-0.4048,-0.4225,-0.423,-0.4121,-0.4113,-0.4106,-0.3875,-0.3846,-0.4212,-0.4212,-0.4212,0,-0.3901,-0.3944,-0.396,-0.4022,-0.4034,-0.4043,-0.4091,-0.4127,-0.4163,-0.4138,-0.4137,-0.4139,-0.4148,-0.4142,-0.4192,-0.421,-0.4086,-0.4166,-0.4126,-0.4116,-0.4107,-0.3873,-0.384,-0.4215,-0.4215,-0.4214,-0.4214,0,-0.3992,-0.4021,-0.4049,-0.4115,-0.4148,-0.4186,-0.4228,-0.4247,-0.4233,-0.4235,-0.4227,-0.4231,-0.4198,-0.4238,-0.4249,-0.4214,-0.412,-0.4157,-0.4067,-0.4103,-0.3856,-0.382,-0.422,-0.4219,-0.4218,-0.4217,0,0,-0.3987,-0.4092,-0.4093,-0.4105,-0.418,-0.42,-0.426,-0.4272,-0.4241,-0.4286,-0.4216,-0.4294,-0.4242,-0.4241,-0.4239,-0.4177,-0.4014,-0.4153,-0.4145,-0.3877,-0.3663,-0.3497,-0.344,-0.404,-0.4037,-0.4034,-0.3485,0,-0.4029,-0.4124,-0.4173,-0.4227,-0.425,-0.4266,-0.4297,-0.4311,-0.4295,-0.4248,-0.4223,-0.42,-0.4261,-0.4225,-0.4178,-0.4096,-0.3938,-0.4152,-0.3709,-0.3692,-0.3504,-0.3403,-0.3306,-0.2804,-0.345,-0.3444,-0.344,0,-0.4074,-0.4112,-0.4178,-0.4197,-0.4206,-0.4251,-0.4199,-0.4243,-0.4204,-0.4181,-0.4135,-0.4113,-0.4058,-0.4095,-0.3868,-0.4001,-0.3818,-0.3722,-0.3699,-0.3502,-0.3464,-0.2894,-0.2715,-0.2779,-0.3384,-0.3389,-0.3393,0,-0.3986,-0.4088,-0.411,-0.4135,-0.4197,-0.4189,-0.4205,-0.4191,-0.4161,-0.4121,-0.4041,-0.3995,-0.3886,-0.3773,-0.36,-0.3725,-0.326,-0.3393,-0.3011,-0.2991,-0.2799,-0.277,-0.2592,-0.3118,-0.312,-0.3121,-0.3123,0,-0.3964,-0.3965,-0.4067,-0.4073,-0.4042,-0.4118,-0.4061,-0.4073,-0.4034,-0.3917,-0.3984,-0.3831,-0.3807,-0.3564,-0.3471,-0.308,-0.3118,-0.2936,-0.2841,-0.2809,-0.279,-0.2753,-0.2839,-0.31,-0.3105,-0.3109,-0.3113,0,-0.3832,-0.3928,-0.3933,-0.3995,-0.4002,-0.3969,-0.397,-0.3906,-0.3919,-0.3751,-0.3728,-0.3631,-0.3323,-0.3174,-0.2877,-0.2813,-0.2478,-0.2355,-0.2258,-0.2165,-0.2014,-0.2105,-0.1728,-0.1677,-0.1899,-0.1892,-0.1886,0,-0.3752,-0.3755,-0.3829,-0.3799,-0.3818,-0.3799,-0.375,-0.3817,-0.3733,-0.3581,-0.3442,-0.3155,-0.2866,-0.2371,-0.2187,-0.1839,-0.198,-0.159,-0.1867,-0.1913,-0.1946,-0.2062,-0.2061,-0.1574,-0.1565,-0.1559,-0.1553,0,-0.3533,-0.3586,-0.3597,-0.3556,-0.3525,-0.3485,-0.343,-0.3355,-0.3341,-0.3211,-0.2913,-0.27,-0.2221,-0.1811,-0.1416,-0.1323,-0.1646,-0.144,-0.1533,-0.1685,-0.1748,-0.1683,-0.1964,-0.1493,-0.1499,-0.1504,-0.1507,-0.1509,-0.3297,-0.3273,-0.3285,-0.3219,-0.3205,-0.308,-0.2934,-0.2877,-0.2699,-0.2375,-0.2351,-0.1887,-0.1502,-0.0962,-0.0954,-0.0898,-0.1029,-0.0977,-0.1058,-0.1153,-0.1209,-0.1298,-0.0743,-0.0744,-0.0746,-0.0747,-0.0748,0,-0.2868,-0.2917,-0.2903,-0.2827,-0.2688,-0.278,-0.2619,-0.2413,-0.2097,-0.1845,-0.1541,-0.0894,-0.0601,-0.0497,-0.0437,-0.0551,-0.0708,-0.0648,-0.087,-0.0874,-0.0944,-0.1051,-0.0486,-0.0486,-0.0486,-0.0486,-0.0486,-0.0486,-0.2618,-0.2493,-0.2546,-0.2267,-0.2235,-0.1927,-0.177,-0.156,-0.1323,-0.0772,-0.0367,-0.013,-0.0018,-0.0187,-0.0473,-0.0576,-0.0709,-0.0624,-0.0716,-0.0915,-0.0959,-0.1002,-0.1128,-0.0588,-0.0588,-0.0644,-0.0645,-0.0646]},{"header":{"parameterUnit":"m.s-1","parameterCategory":2,"la1":30.2991,"la2":30.254,"lo1":-89.0895,"lo2":-89.0444,"dy":0.0017,"dx":0.0017,"nx":28,"ny":28,"refTime":"2023-07-18T21:00:00:Z","depth":"0","parameterNumber":3,"parameterNumberName":"V-component_of_CURRENTS"},"data":[0,0,0,0,0,0,0,0,0,0,0,0,0,0,0,0,0,0,0,0,0,0,0,0,0,0,0,0,0,0,0,0,0,0,0,0,0,0,0,0,0,0,0,0,0,0,0,0,0,0,0,0,0,0,0,0,0,0,-0.1018,-0.1016,0,-0.0882,-0.088,-0.0878,-0.0763,-0.0761,-0.076,-0.0759,-0.057,-0.0567,-0.0563,0,0,0,0,0,0,0,0,0,0,0,0,0,-0.1056,-0.1056,-0.1018,-0.1016,-0.1015,-0.0882,-0.088,-0.0878,-0.0763,-0.0761,-0.076,-0.0759,-0.0572,-0.0567,-0.0562,0,0,0,0,0,0,0,0,0,0,0,0,0,-0.099,-0.1057,-0.1018,-0.0943,-0.0935,-0.0883,-0.088,-0.0877,-0.0763,-0.0761,-0.076,-0.0758,-0.0573,-0.0567,-0.0562,-0.0558,0,0,-0.0543,-0.0541,0,0,0,0,0,0,0,0,-0.0994,-0.0989,-0.0955,-0.0948,-0.0939,-0.0839,-0.0824,-0.0769,-0.0764,-0.0826,-0.0759,-0.0757,-0.0658,-0.0645,-0.0621,-0.0549,-0.0541,-0.0543,-0.0539,-0.0537,-0.0535,0,0,0,0,0,0,0,-0.0999,-0.0993,-0.0962,-0.0954,-0.0944,-0.0874,-0.0864,-0.0812,-0.0751,-0.0821,-0.0812,-0.0801,-0.0652,-0.0627,-0.0616,-0.0538,-0.0543,-0.0538,-0.0534,-0.0532,-0.0425,-0.0426,0,0,0,0,0,0,-0.1028,-0.0999,-0.0967,-0.0958,-0.0965,-0.0875,-0.0863,-0.0871,-0.0752,-0.0733,-0.0802,-0.0796,-0.0638,-0.0623,-0.0609,-0.0575,-0.0537,-0.0531,-0.0528,-0.0424,-0.0425,-0.0426,0,0,0,0,0,0,-0.103,-0.1027,-0.0972,-0.0975,-0.0963,-0.0877,-0.0886,-0.087,-0.0844,-0.0739,-0.0718,-0.0794,-0.0636,-0.0617,-0.0564,-0.0567,-0.0528,-0.0523,-0.0423,-0.0425,-0.0426,-0.0521,0,0,0,0,0,0,-0.1032,-0.1029,-0.1054,-0.0978,-0.0964,-0.0952,-0.0887,-0.0868,-0.084,-0.083,-0.0726,-0.0706,-0.0633,-0.0574,-0.0558,-0.0558,-0.0518,-0.0422,-0.0424,-0.0425,-0.0517,-0.0525,-0.0533,0,0,0,0,0,-0.1034,-0.1078,-0.1057,-0.1052,-0.0999,-0.0953,-0.094,-0.087,-0.0842,-0.084,-0.0765,-0.0709,-0.0571,-0.057,-0.0551,-0.0549,-0.0422,-0.0424,-0.0425,-0.0514,-0.0524,-0.0532,0,0,0,0,0,0,-0.1115,-0.1068,-0.1043,-0.1073,-0.1021,-0.0934,-0.0936,-0.0886,-0.0828,-0.082,-0.0718,-0.0694,-0.0646,-0.0595,-0.0596,-0.0525,-0.0488,-0.0486,-0.0562,-0.057,-0.0578,-0.0602,-0.0513,0,0,0,0,0,-0.1146,-0.1161,-0.1096,-0.112,-0.1104,-0.1024,-0.1001,-0.0951,-0.0886,-0.0858,-0.078,-0.0705,-0.0641,-0.0605,-0.0541,-0.051,-0.0435,-0.0498,-0.0506,-0.0513,-0.0521,-0.0467,-0.0471,-0.0432,-0.0432,-0.0432,0,0,-0.1183,-0.1161,-0.1169,-0.1137,-0.1095,-0.1071,-0.1006,-0.0981,-0.0955,-0.0849,-0.0801,-0.073,-0.064,-0.0592,-0.0567,-0.0548,-0.0468,-0.0515,-0.0522,-0.0526,-0.047,-0.0473,-0.0477,-0.0433,-0.0433,-0.0432,0,0,-0.125,-0.1247,-0.1271,-0.1235,-0.1184,-0.1127,-0.1127,-0.1045,-0.1008,-0.0954,-0.0871,-0.0811,-0.0711,-0.0646,-0.0601,-0.0622,-0.0513,-0.0599,-0.0653,-0.0601,-0.0604,-0.0606,-0.0442,-0.0429,-0.0603,-0.0603,-0.0603,0,-0.1294,-0.1308,-0.1269,-0.1271,-0.124,-0.1159,-0.1152,-0.1111,-0.1017,-0.0987,-0.0953,-0.0807,-0.0736,-0.0672,-0.0673,-0.0638,-0.0557,-0.0624,-0.0612,-0.0613,-0.0613,-0.0445,-0.0429,-0.0608,-0.0607,-0.0607,-0.0606,0,-0.1356,-0.1363,-0.1376,-0.1342,-0.1312,-0.1296,-0.1224,-0.1193,-0.1133,-0.107,-0.1,-0.0904,-0.0815,-0.0785,-0.073,-0.0696,-0.0613,-0.0629,-0.0591,-0.0623,-0.0442,-0.0424,-0.0615,-0.0613,-0.0611,-0.061,0,0,-0.1436,-0.1422,-0.1419,-0.1408,-0.1341,-0.1317,-0.1292,-0.1228,-0.121,-0.1124,-0.1084,-0.098,-0.0927,-0.0876,-0.0802,-0.0757,-0.0662,-0.0702,-0.0697,-0.0541,-0.0459,-0.0359,-0.0327,-0.0685,-0.0685,-0.0684,-0.0305,0,-0.1478,-0.1503,-0.1471,-0.1462,-0.1456,-0.1381,-0.1356,-0.1295,-0.1235,-0.1185,-0.1092,-0.1021,-0.0964,-0.0917,-0.0872,-0.0719,-0.0631,-0.0757,-0.045,-0.0439,-0.0351,-0.0312,-0.0231,0.0113,-0.0287,-0.0283,-0.0281,0,-0.152,-0.1527,-0.1542,-0.1505,-0.1496,-0.1479,-0.1417,-0.1388,-0.1312,-0.1263,-0.1195,-0.1111,-0.0999,-0.0976,-0.0725,-0.0807,-0.0645,-0.0525,-0.0509,-0.038,-0.0309,0.0066,0.0162,0.023,-0.0252,-0.0254,-0.0256,0,-0.1559,-0.156,-0.1572,-0.156,-0.1518,-0.1509,-0.1479,-0.1413,-0.1373,-0.1314,-0.1254,-0.1145,-0.103,-0.0886,-0.0622,-0.0673,-0.0331,-0.0366,-0.0099,-0.0084,0.0063,0.0087,0.025,-0.0202,-0.0203,-0.0204,-0.0205,0,-0.159,-0.159,-0.16,-0.1602,-0.1604,-0.1562,-0.1541,-0.1509,-0.144,-0.1362,-0.13,-0.1185,-0.1012,-0.0792,-0.0611,-0.0258,-0.0301,-0.0076,0.0001,0.0042,0.0058,0.0184,0.0201,-0.019,-0.0193,-0.0196,-0.0198,0,-0.1598,-0.1615,-0.1625,-0.1622,-0.1622,-0.1621,-0.1564,-0.1533,-0.1478,-0.1376,-0.1341,-0.1159,-0.0863,-0.0637,-0.0324,-0.0175,0.021,0.023,0.0325,0.0403,0.0651,0.066,0.0963,0.1083,0.0581,0.0585,0.0589,0,-0.1581,-0.1602,-0.1642,-0.1637,-0.1631,-0.1622,-0.1591,-0.1556,-0.1491,-0.1319,-0.1239,-0.097,-0.0709,-0.0203,0.0071,0.045,0.0479,0.0735,0.0607,0.0703,0.0771,0.0749,0.0825,0.083,0.0835,0.0839,0.0843,0,-0.1523,-0.1564,-0.158,-0.1596,-0.1589,-0.1568,-0.1518,-0.1474,-0.1377,-0.1259,-0.101,-0.0805,-0.0341,0.0123,0.056,0.0734,0.0809,0.0837,0.0889,0.0945,0.0982,0.1122,0.0612,0.0882,0.0878,0.0875,0.0873,0.0872,-0.1431,-0.1458,-0.1484,-0.1482,-0.149,-0.1435,-0.1335,-0.1259,-0.1118,-0.0816,-0.0741,-0.0274,0.0176,0.0794,0.0929,0.1236,0.1176,0.133,0.1345,0.1323,0.1373,0.0991,0.1336,0.1335,0.1334,0.1333,0.1332,0,-0.121,-0.1289,-0.1327,-0.1307,-0.1246,-0.1295,-0.1189,-0.1015,-0.0762,-0.0509,-0.0206,0.051,0.0957,0.127,0.1657,0.1761,0.1714,0.1779,0.1736,0.1797,0.1444,0.1377,0.18,0.18,0.18,0.18,0.18,0.18,-0.1077,-0.1071,-0.1135,-0.1015,-0.0998,-0.0806,-0.0695,-0.0502,-0.0258,0.0294,0.08,0.1152,0.1576,0.1852,0.2065,0.2063,0.2149,0.2142,0.2191,0.187,0.1825,0.1783,0.172,0.2207,0.2208,0.2541,0.2544,0.2547]}],[{"header":{"parameterUnit":"m.s-1","parameterCategory":2,"la1":30.2991,"la2":30.254,"lo1":-89.0895,"lo2":-89.0444,"dy":0.0017,"dx":0.0017,"nx":28,"ny":28,"refTime":"2023-07-18T21:00:00:Z","depth":"2","parameterNumber":2,"parameterNumberName":"U-component_of_CURRENTS"},"data":[0,0,0,0,0,0,0,0,0,0,0,0,0,0,0,0,0,0,0,0,0,0,0,0,0,0,0,0,0,0,0,0,0,0,0,0,0,0,0,0,0,0,0,0,0,0,0,0,0,0,0,0,0,0,0,0,0,0,-0.2162,-0.2164,0,-0.219,-0.2189,-0.2188,-0.2209,-0.2211,-0.2213,-0.2215,-0.247,-0.2475,-0.248,0,0,0,0,0,0,0,0,0,0,0,0,0,-0.2058,-0.2059,-0.2162,-0.2164,-0.2166,-0.219,-0.2189,-0.2187,-0.2209,-0.2211,-0.2213,-0.2215,-0.2468,-0.2475,-0.2481,0,0,0,0,0,0,0,0,0,0,0,0,0,-0.208,-0.2059,-0.2162,-0.2192,-0.2197,-0.219,-0.2189,-0.2187,-0.2208,-0.2211,-0.2214,-0.2216,-0.2466,-0.2474,-0.2482,-0.2475,0,0,-0.2505,-0.2508,0,0,0,0,0,0,0,0,-0.2079,-0.2081,-0.2186,-0.219,-0.2195,-0.2214,-0.2247,-0.2301,-0.2208,-0.2186,-0.2215,-0.2218,-0.2415,-0.2427,-0.2398,-0.2487,-0.2498,-0.2506,-0.251,-0.2514,-0.2516,0,0,0,0,0,0,0,-0.2077,-0.208,-0.2155,-0.2188,-0.2194,-0.2182,-0.2187,-0.2254,-0.2276,-0.2188,-0.2194,-0.2223,-0.2417,-0.239,-0.2406,-0.2502,-0.2506,-0.2512,-0.2517,-0.252,-0.2591,-0.2589,0,0,0,0,0,0,-0.2109,-0.2079,-0.2155,-0.2158,-0.2162,-0.2183,-0.2188,-0.2191,-0.227,-0.2288,-0.2221,-0.2225,-0.2376,-0.2396,-0.2415,-0.2458,-0.2514,-0.2521,-0.2525,-0.2594,-0.2591,-0.2588,0,0,0,0,0,0,-0.2106,-0.2114,-0.2154,-0.2134,-0.2141,-0.2185,-0.2187,-0.2191,-0.2202,-0.2296,-0.2315,-0.2236,-0.2379,-0.2404,-0.2483,-0.2468,-0.2524,-0.2531,-0.2597,-0.2593,-0.2589,-0.2518,0,0,0,0,0,0,-0.2102,-0.2112,-0.2105,-0.2136,-0.2144,-0.2144,-0.2186,-0.219,-0.2223,-0.2227,-0.2315,-0.2338,-0.2383,-0.2471,-0.2491,-0.248,-0.2537,-0.2601,-0.2595,-0.2591,-0.2524,-0.2512,-0.2502,0,0,0,0,0,-0.2098,-0.2066,-0.2103,-0.2113,-0.2139,-0.2144,-0.2143,-0.2173,-0.2221,-0.2196,-0.2271,-0.2337,-0.2451,-0.2476,-0.25,-0.2491,-0.2603,-0.2597,-0.2591,-0.2529,-0.2514,-0.2502,0,0,0,0,0,0,-0.2019,-0.2069,-0.2109,-0.2097,-0.2129,-0.2155,-0.2142,-0.2185,-0.2215,-0.2246,-0.2332,-0.2358,-0.2399,-0.2452,-0.2477,-0.2484,-0.2527,-0.2525,-0.247,-0.2458,-0.2447,-0.2481,-0.2544,0,0,0,0,0,-0.2005,-0.1997,-0.2054,-0.2051,-0.2065,-0.2114,-0.2123,-0.2158,-0.2205,-0.2219,-0.2291,-0.2352,-0.2378,-0.2432,-0.2454,-0.2501,-0.2522,-0.2495,-0.2484,-0.2475,-0.2511,-0.2503,-0.2496,-0.2568,-0.2568,-0.2568,0,0,-0.1983,-0.2011,-0.201,-0.2035,-0.2061,-0.2084,-0.2119,-0.2142,-0.2175,-0.2251,-0.2306,-0.2322,-0.2373,-0.2387,-0.2412,-0.2451,-0.2449,-0.2467,-0.2459,-0.2502,-0.2496,-0.249,-0.2484,-0.2564,-0.2564,-0.2565,0,0,-0.195,-0.1955,-0.1952,-0.1973,-0.2033,-0.2058,-0.2079,-0.2127,-0.2148,-0.2199,-0.2238,-0.226,-0.2331,-0.2346,-0.2368,-0.232,-0.2373,-0.2312,-0.2325,-0.2315,-0.231,-0.2307,-0.2269,-0.2263,-0.2331,-0.2331,-0.2331,0,-0.1936,-0.194,-0.195,-0.1969,-0.1999,-0.2059,-0.2085,-0.2102,-0.2176,-0.2203,-0.2214,-0.2268,-0.2305,-0.2333,-0.2296,-0.2303,-0.23,-0.2378,-0.2305,-0.2302,-0.23,-0.2263,-0.2258,-0.2327,-0.2327,-0.2327,-0.2328,0,-0.1914,-0.193,-0.1926,-0.1978,-0.1994,-0.2014,-0.2073,-0.21,-0.2147,-0.218,-0.2206,-0.2222,-0.2263,-0.2242,-0.2269,-0.2261,-0.2258,-0.2274,-0.235,-0.229,-0.2252,-0.2248,-0.2321,-0.2322,-0.2323,-0.2324,0,0,-0.1866,-0.1906,-0.191,-0.1939,-0.2004,-0.2014,-0.2068,-0.2116,-0.2153,-0.2187,-0.2218,-0.222,-0.2232,-0.2255,-0.2263,-0.2265,-0.2206,-0.2272,-0.2274,-0.2255,-0.2165,-0.2048,-0.2032,-0.2215,-0.2215,-0.2215,-0.2126,0,-0.1864,-0.1883,-0.1911,-0.195,-0.1969,-0.2031,-0.2064,-0.2121,-0.2155,-0.2186,-0.221,-0.2221,-0.2237,-0.2234,-0.2239,-0.2226,-0.2201,-0.2228,-0.2211,-0.2211,-0.2132,-0.2026,-0.1883,-0.1784,-0.2122,-0.2122,-0.2121,0,-0.1847,-0.1861,-0.1882,-0.194,-0.1953,-0.1983,-0.2042,-0.208,-0.2142,-0.2164,-0.2203,-0.2225,-0.2246,-0.2237,-0.2227,-0.2247,-0.2202,-0.2182,-0.2178,-0.211,-0.2087,-0.1907,-0.1764,-0.2115,-0.2115,-0.2116,-0.2116,0,-0.1795,-0.1847,-0.1854,-0.1872,-0.1938,-0.1964,-0.2004,-0.2071,-0.2092,-0.2147,-0.217,-0.2207,-0.2222,-0.2201,-0.2176,-0.2201,-0.2134,-0.2158,-0.2005,-0.1996,-0.1895,-0.1877,-0.2115,-0.2115,-0.2115,-0.2115,-0.2116,0,-0.1771,-0.1779,-0.1826,-0.1827,-0.1841,-0.1911,-0.1931,-0.1983,-0.2037,-0.2052,-0.2146,-0.2166,-0.2217,-0.2202,-0.2162,-0.2062,-0.2119,-0.1991,-0.1963,-0.1855,-0.1835,-0.2163,-0.217,-0.2112,-0.2113,-0.2114,-0.2114,0,-0.1704,-0.1737,-0.1748,-0.1802,-0.1814,-0.182,-0.1876,-0.1885,-0.1966,-0.199,-0.2009,-0.2128,-0.2109,-0.2109,-0.2064,-0.2029,-0.1943,-0.188,-0.1733,-0.1689,-0.1816,-0.182,-0.1716,-0.1711,-0.1707,-0.1703,-0.17,0,-0.1655,-0.1655,-0.1698,-0.1692,-0.1711,-0.173,-0.1738,-0.1821,-0.1835,-0.1955,-0.1956,-0.1996,-0.199,-0.1898,-0.1803,-0.1675,-0.178,-0.1499,-0.1517,-0.179,-0.1774,-0.1785,-0.1794,-0.1336,-0.133,-0.1325,-0.1322,0,-0.1564,-0.159,-0.1597,-0.1587,-0.1591,-0.1594,-0.1622,-0.1629,-0.1726,-0.176,-0.1813,-0.1827,-0.1771,-0.1614,-0.1473,-0.1391,-0.1516,-0.1398,-0.1713,-0.1458,-0.1424,-0.1412,-0.1434,-0.128,-0.1284,-0.1287,-0.129,-0.1291,-0.1486,-0.1469,-0.1482,-0.1465,-0.1469,-0.1455,-0.142,-0.1458,-0.1461,-0.1486,-0.1598,-0.1562,-0.1574,-0.1278,-0.1164,-0.1064,-0.1178,-0.1153,-0.117,-0.1193,-0.1163,-0.1124,-0.0917,-0.0919,-0.092,-0.0922,-0.0923,0,-0.1387,-0.1375,-0.1351,-0.1331,-0.129,-0.1333,-0.1325,-0.1273,-0.1229,-0.126,-0.1261,-0.1149,-0.103,-0.1012,-0.0783,-0.0737,-0.0768,-0.0716,-0.0779,-0.0817,-0.0852,-0.0812,-0.0469,-0.0468,-0.0467,-0.0466,0,0,-0.1345,-0.1273,-0.1258,-0.1155,-0.1135,-0.104,-0.101,-0.096,-0.0944,-0.0879,-0.0846,-0.0945,-0.0982,-0.0747,-0.0672,-0.0533,-0.0676,-0.0492,-0.085,-0.0962,-0.0997,-0.1086,-0.1062,0,0,0,0,0]},{"header":{"parameterUnit":"m.s-1","parameterCategory":2,"la1":30.2991,"la2":30.254,"lo1":-89.0895,"lo2":-89.0444,"dy":0.0017,"dx":0.0017,"nx":28,"ny":28,"refTime":"2023-07-18T21:00:00:Z","depth":"2","parameterNumber":3,"parameterNumberName":"V-component_of_CURRENTS"},"data":[0,0,0,0,0,0,0,0,0,0,0,0,0,0,0,0,0,0,0,0,0,0,0,0,0,0,0,0,0,0,0,0,0,0,0,0,0,0,0,0,0,0,0,0,0,0,0,0,0,0,0,0,0,0,0,0,0,0,-0.056,-0.0559,0,-0.0481,-0.048,-0.0479,-0.0365,-0.0363,-0.0361,-0.0359,0.0061,0.007,0.008,0,0,0,0,0,0,0,0,0,0,0,0,0,-0.0647,-0.0646,-0.056,-0.0559,-0.0558,-0.0481,-0.048,-0.0479,-0.0365,-0.0363,-0.036,-0.0358,0.0058,0.0069,0.008,0,0,0,0,0,0,0,0,0,0,0,0,0,-0.0591,-0.0645,-0.056,-0.0493,-0.0486,-0.0482,-0.048,-0.0479,-0.0365,-0.0363,-0.036,-0.0357,0.0054,0.0068,0.0082,0.0114,0,0,0.0125,0.0131,0,0,0,0,0,0,0,0,-0.0595,-0.0588,-0.0504,-0.0498,-0.049,-0.0431,-0.0357,-0.0264,-0.0366,-0.041,-0.0359,-0.0356,-0.0075,-0.005,-0.0044,0.0133,0.0152,0.0127,0.0135,0.0141,0.0145,0,0,0,0,0,0,0,-0.0599,-0.0591,-0.0527,-0.0503,-0.0495,-0.0479,-0.0468,-0.034,-0.0251,-0.0406,-0.0398,-0.0392,-0.0068,-0.0059,-0.0032,0.0158,0.0126,0.0139,0.0148,0.0153,0.0377,0.0375,0,0,0,0,0,0,-0.0612,-0.0595,-0.053,-0.0525,-0.0538,-0.048,-0.0467,-0.0452,-0.026,-0.0231,-0.0395,-0.0387,-0.0084,-0.0049,-0.0017,0.0082,0.0141,0.0154,0.0163,0.038,0.0377,0.0374,0,0,0,0,0,0,-0.0614,-0.0607,-0.0533,-0.056,-0.0549,-0.0481,-0.0465,-0.0452,-0.0414,-0.0256,-0.0219,-0.0368,-0.0081,-0.0036,0.0085,0.0098,0.0161,0.0174,0.0383,0.0379,0.0375,0.025,0,0,0,0,0,0,-0.0617,-0.0608,-0.0612,-0.0561,-0.0548,-0.0509,-0.0468,-0.0452,-0.0418,-0.0406,-0.0221,-0.0181,-0.0075,0.0063,0.0099,0.0119,0.0185,0.0386,0.0381,0.0377,0.0257,0.0243,0.023,0,0,0,0,0,-0.062,-0.0621,-0.0613,-0.0605,-0.0552,-0.0509,-0.05,-0.0443,-0.0419,-0.04,-0.0304,-0.0186,0.0058,0.0073,0.0116,0.0141,0.0388,0.0382,0.0377,0.0264,0.0245,0.023,0,0,0,0,0,0,-0.0651,-0.0609,-0.0597,-0.0583,-0.0546,-0.0489,-0.048,-0.0444,-0.0362,-0.0346,-0.0197,-0.0151,-0.0052,0.0045,0.0057,0.0177,0.0235,0.0237,0.0134,0.0118,0.0105,0.0112,0.0197,0,0,0,0,0,-0.0669,-0.0661,-0.0613,-0.0604,-0.059,-0.054,-0.0521,-0.048,-0.0405,-0.0368,-0.025,-0.0141,-0.0053,0.0035,0.0125,0.0222,0.0293,0.0251,0.0237,0.0225,0.0252,0.0329,0.0326,0.0355,0.0355,0.0355,0,0,-0.0681,-0.0658,-0.0654,-0.0612,-0.0585,-0.0564,-0.0519,-0.0486,-0.0458,-0.0329,-0.0251,-0.0177,-0.0049,0.003,0.0086,0.0132,0.0241,0.0218,0.0207,0.0242,0.0323,0.0321,0.0319,0.0351,0.0352,0.0353,0,0,-0.0699,-0.068,-0.068,-0.0654,-0.0618,-0.0584,-0.0573,-0.0512,-0.0472,-0.0405,-0.0331,-0.0254,-0.0096,-0.0016,0.0047,0.0015,0.0146,0.0035,0.0017,0.0089,0.0089,0.0089,0.013,0.0136,0.0052,0.0052,0.0052,0,-0.0717,-0.071,-0.0673,-0.0665,-0.0652,-0.0592,-0.0584,-0.0541,-0.0448,-0.0413,-0.0386,-0.0225,-0.0119,-0.0019,-0.0048,-0.0005,0.0043,0.0077,0.0075,0.0078,0.0081,0.0124,0.0132,0.0045,0.0046,0.0047,0.0047,0,-0.0732,-0.0729,-0.0726,-0.0699,-0.0676,-0.066,-0.0602,-0.0565,-0.0521,-0.047,-0.0382,-0.028,-0.0173,-0.0153,-0.0094,-0.003,-0.0006,0.0031,0.0126,0.0071,0.0118,0.0129,0.0036,0.0038,0.004,0.0042,0,0,-0.0756,-0.0742,-0.074,-0.0748,-0.0697,-0.0681,-0.0638,-0.058,-0.055,-0.0468,-0.0414,-0.0307,-0.0258,-0.0189,-0.0118,-0.0049,-0.0016,-0.0002,0.0005,0.0054,0.0124,0.0144,0.0158,0.0025,0.0027,0.0029,0.0131,0,-0.0779,-0.0791,-0.0767,-0.0773,-0.0775,-0.072,-0.0689,-0.0628,-0.0564,-0.0495,-0.0389,-0.0315,-0.0267,-0.0229,-0.0155,-0.0039,0.0015,-0.0048,0.016,0.0166,0.0204,0.0173,0.0149,0.024,0.0143,0.0145,0.0146,0,-0.0799,-0.0807,-0.0827,-0.0824,-0.0819,-0.0811,-0.0761,-0.0724,-0.0611,-0.0559,-0.046,-0.0371,-0.025,-0.0222,-0.003,-0.0071,0.0012,0.0092,0.0099,0.0185,0.0208,0.0288,0.0265,0.0166,0.0164,0.0163,0.0162,0,-0.0843,-0.0848,-0.0874,-0.0872,-0.0851,-0.085,-0.0831,-0.0744,-0.0709,-0.0595,-0.0545,-0.0395,-0.0295,-0.0172,-0.0005,-0.0014,0.0197,0.0209,0.0301,0.0302,0.0361,0.0365,0.0326,0.0326,0.0325,0.0325,0.0325,0,-0.0877,-0.0896,-0.0905,-0.0919,-0.0947,-0.0911,-0.0906,-0.086,-0.0776,-0.0722,-0.0587,-0.0491,-0.0272,-0.0119,-0.0007,0.0189,0.0199,0.0307,0.0342,0.0307,0.0305,0.0318,0.0315,0.0329,0.0328,0.0327,0.0327,0,-0.0915,-0.0921,-0.0956,-0.0964,-0.0972,-0.0992,-0.0973,-0.0953,-0.0873,-0.0794,-0.0757,-0.053,-0.0316,-0.0126,0.0111,0.021,0.0367,0.0421,0.035,0.0376,0.0416,0.0405,0.0541,0.0543,0.0544,0.0546,0.0547,0,-0.0935,-0.0959,-0.1,-0.1026,-0.1037,-0.1057,-0.106,-0.1009,-0.0979,-0.0812,-0.0768,-0.0529,-0.0341,0.0007,0.0226,0.0433,0.0424,0.0515,0.0501,0.0423,0.0444,0.0431,0.0419,0.0508,0.0508,0.0509,0.0509,0,-0.0974,-0.0992,-0.1024,-0.1077,-0.1108,-0.1132,-0.1134,-0.1121,-0.1034,-0.0949,-0.0772,-0.0608,-0.0235,0.006,0.034,0.0442,0.048,0.0533,0.0507,0.0451,0.04,0.0417,0.0405,0.0514,0.0514,0.0513,0.0513,0.0513,-0.1006,-0.104,-0.1083,-0.1132,-0.1166,-0.1189,-0.1201,-0.1169,-0.1116,-0.0958,-0.0794,-0.0511,-0.0223,0.0227,0.0402,0.057,0.0565,0.0596,0.0591,0.0587,0.0559,0.0513,0.0642,0.0642,0.0642,0.0642,0.0643,0,-0.1053,-0.1085,-0.1128,-0.1191,-0.1232,-0.1236,-0.1232,-0.1214,-0.115,-0.0938,-0.0759,-0.041,-0.007,0.0217,0.0505,0.0653,0.0624,0.0657,0.06,0.0594,0.0589,0.0559,0.0643,0.0644,0.0644,0.0645,0,0,-0.1086,-0.1138,-0.1155,-0.1235,-0.1274,-0.1312,-0.1308,-0.1246,-0.1102,-0.0893,-0.0653,-0.0367,-0.0007,0.019,0.0379,0.0534,0.051,0.0528,0.051,0.0411,0.0405,0.0537,0.0483,0,0,0,0,0]}],[{"header":{"parameterUnit":"m.s-1","parameterCategory":2,"la1":30.2991,"la2":30.254,"lo1":-89.0895,"lo2":-89.0444,"dy":0.0017,"dx":0.0017,"nx":28,"ny":28,"refTime":"2023-07-18T21:00:00:Z","depth":"4","parameterNumber":2,"parameterNumberName":"U-component_of_CURRENTS"},"data":[0,0,0,0,0,0,0,0,0,0,0,0,0,0,0,0,0,0,0,0,0,0,0,0,0,0,0,0,0,0,0,0,0,0,0,0,0,0,0,0,0,0,0,0,0,0,0,0,0,0,0,0,0,0,0,0,0,0,-0.1305,-0.1305,0,-0.1341,-0.1341,-0.1342,-0.1391,-0.1392,-0.1392,-0.1393,-0.1427,-0.1427,-0.1428,0,0,0,0,0,0,0,0,0,0,0,0,0,-0.1298,-0.1298,-0.1305,-0.1305,-0.1306,-0.1341,-0.1341,-0.1342,-0.1391,-0.1392,-0.1393,-0.1393,-0.1427,-0.1427,-0.1428,0,0,0,0,0,0,0,0,0,0,0,0,0,-0.1317,-0.1298,-0.1305,-0.1332,-0.1335,-0.134,-0.1341,-0.1342,-0.1391,-0.1392,-0.1393,-0.1394,-0.1427,-0.1427,-0.1428,-0.1415,0,0,-0.143,-0.143,0,0,0,0,0,0,0,0,-0.1315,-0.1317,-0.1328,-0.133,-0.1333,-0.136,-0.1351,-0.1365,-0.1391,-0.1373,-0.1393,-0.1394,-0.1402,-0.1404,-0.1414,-0.1416,-0.1418,-0.143,-0.143,-0.143,-0.143,0,0,0,0,0,0,0,-0.1314,-0.1316,-0.1322,-0.1328,-0.1331,-0.1348,-0.1352,-0.1354,-0.1385,-0.1375,-0.1377,-0.1376,-0.1404,-0.1413,-0.1415,-0.1418,-0.143,-0.143,-0.1431,-0.1431,-0.1453,-0.1453,0,0,0,0,0,0,-0.1302,-0.1315,-0.1321,-0.1323,-0.1323,-0.1347,-0.1352,-0.1353,-0.1385,-0.1389,-0.1375,-0.1378,-0.1412,-0.1414,-0.1416,-0.1481,-0.143,-0.1431,-0.1431,-0.1452,-0.1453,-0.1453,0,0,0,0,0,0,-0.1301,-0.1302,-0.132,-0.1317,-0.132,-0.1346,-0.1347,-0.1353,-0.1388,-0.1385,-0.139,-0.1406,-0.1412,-0.1415,-0.1443,-0.1479,-0.1431,-0.1432,-0.1452,-0.1453,-0.1453,-0.1559,0,0,0,0,0,0,-0.1301,-0.1302,-0.1312,-0.1316,-0.132,-0.1342,-0.1346,-0.1353,-0.1382,-0.1387,-0.1412,-0.1415,-0.1413,-0.1442,-0.1444,-0.1479,-0.1432,-0.1452,-0.1452,-0.1453,-0.1555,-0.1563,-0.157,0,0,0,0,0,-0.1301,-0.1307,-0.1312,-0.1313,-0.1328,-0.1343,-0.1348,-0.137,-0.1383,-0.1404,-0.1422,-0.1416,-0.1445,-0.1444,-0.1445,-0.1481,-0.1452,-0.1452,-0.1453,-0.1552,-0.1561,-0.1569,0,0,0,0,0,0,-0.1308,-0.1312,-0.1318,-0.1326,-0.1341,-0.1351,-0.137,-0.1383,-0.1414,-0.1426,-0.1427,-0.1431,-0.1469,-0.1448,-0.1446,-0.1482,-0.1444,-0.1445,-0.1519,-0.1527,-0.1534,-0.1533,-0.1433,0,0,0,0,0,-0.1311,-0.1322,-0.1327,-0.1337,-0.1346,-0.1363,-0.1376,-0.1392,-0.141,-0.1427,-0.1441,-0.145,-0.1466,-0.1478,-0.1482,-0.1505,-0.1478,-0.1522,-0.1529,-0.1536,-0.1532,-0.1523,-0.153,-0.1455,-0.1455,-0.1455,0,0,-0.1315,-0.132,-0.1326,-0.134,-0.1356,-0.1382,-0.1376,-0.1403,-0.1436,-0.1423,-0.1477,-0.1481,-0.1476,-0.151,-0.1523,-0.1504,-0.1544,-0.1536,-0.1543,-0.1534,-0.1524,-0.1532,-0.1539,-0.1455,-0.1455,-0.1455,0,0,-0.1324,-0.1336,-0.1349,-0.1369,-0.1393,-0.1408,-0.1421,-0.1445,-0.1471,-0.1509,-0.1512,-0.1536,-0.1555,-0.1565,-0.1571,-0.1612,-0.1584,-0.1611,-0.1653,-0.1646,-0.1652,-0.1658,-0.1646,-0.1649,-0.1614,-0.1614,-0.1614,0,-0.1333,-0.1345,-0.1356,-0.1381,-0.1402,-0.1425,-0.1453,-0.1484,-0.1517,-0.1535,-0.1538,-0.1576,-0.1582,-0.1621,-0.1642,-0.1633,-0.1617,-0.1631,-0.1658,-0.1663,-0.1666,-0.1653,-0.1655,-0.1619,-0.1619,-0.1618,-0.1618,0,-0.1347,-0.1372,-0.1385,-0.1426,-0.1455,-0.1483,-0.1521,-0.1558,-0.1589,-0.1608,-0.1655,-0.1663,-0.1678,-0.1691,-0.1687,-0.172,-0.1696,-0.1674,-0.1645,-0.1681,-0.1663,-0.1664,-0.1627,-0.1625,-0.1623,-0.1622,0,0,-0.1323,-0.1383,-0.139,-0.1416,-0.1482,-0.15,-0.157,-0.1618,-0.165,-0.1694,-0.1725,-0.1773,-0.1769,-0.1771,-0.1769,-0.1772,-0.18,-0.1741,-0.1739,-0.1744,-0.1783,-0.1631,-0.1616,-0.1788,-0.1788,-0.1789,-0.1765,0,-0.1332,-0.1378,-0.1413,-0.1472,-0.1498,-0.1554,-0.1608,-0.1661,-0.1702,-0.1738,-0.1765,-0.1791,-0.1803,-0.1808,-0.1822,-0.1796,-0.1804,-0.1808,-0.1732,-0.1729,-0.1602,-0.1612,-0.179,-0.1765,-0.1765,-0.1765,-0.1765,0,-0.1326,-0.1359,-0.1412,-0.1484,-0.1501,-0.1547,-0.1626,-0.1673,-0.1739,-0.1767,-0.181,-0.1822,-0.1855,-0.184,-0.1845,-0.1847,-0.1826,-0.1806,-0.1805,-0.1621,-0.1577,-0.1714,-0.1766,-0.1766,-0.1766,-0.1766,-0.1766,0,-0.128,-0.1355,-0.1396,-0.1423,-0.1511,-0.155,-0.16,-0.1678,-0.171,-0.1775,-0.1796,-0.1841,-0.185,-0.1846,-0.1828,-0.1836,-0.1803,-0.1803,-0.1652,-0.1642,-0.1744,-0.1738,-0.1798,-0.1798,-0.1798,-0.1798,-0.1798,0,-0.1257,-0.1291,-0.1377,-0.1397,-0.1445,-0.1519,-0.157,-0.1628,-0.1693,-0.1717,-0.1796,-0.1808,-0.185,-0.1843,-0.1826,-0.1728,-0.1804,-0.165,-0.1619,-0.1789,-0.1788,-0.1745,-0.1739,-0.1797,-0.1797,-0.1797,-0.1797,0,-0.1193,-0.1253,-0.13,-0.1393,-0.1422,-0.1452,-0.1542,-0.1567,-0.1649,-0.1679,-0.1699,-0.178,-0.1755,-0.1771,-0.1746,-0.1698,-0.1634,-0.1584,-0.1761,-0.1742,-0.1485,-0.1485,-0.1411,-0.1405,-0.14,-0.1396,-0.1393,0,-0.1157,-0.1176,-0.1276,-0.1298,-0.1341,-0.1398,-0.143,-0.1527,-0.155,-0.1643,-0.1638,-0.166,-0.169,-0.1546,-0.1575,-0.1508,-0.1492,-0.147,-0.1484,-0.1464,-0.1443,-0.145,-0.1457,-0.1385,-0.1384,-0.1382,-0.1381,0,-0.1088,-0.1137,-0.1176,-0.1221,-0.126,-0.1296,-0.135,-0.1356,-0.1451,-0.154,-0.1526,-0.1508,-0.147,-0.1443,-0.139,-0.1354,-0.1489,-0.1419,-0.143,-0.1443,-0.1432,-0.1417,-0.1429,-0.1364,-0.1367,-0.1368,-0.1369,0,-0.1033,-0.1042,-0.1097,-0.1123,-0.1171,-0.1174,-0.1222,-0.124,-0.1273,-0.1382,-0.1369,-0.1396,-0.1454,-0.136,-0.1317,-0.1251,-0.1235,-0.1216,-0.1237,-0.1256,-0.1211,-0.1175,-0.099,0,0,0,0,0,-0.097,-0.0966,-0.099,-0.1011,-0.1056,-0.1076,-0.1155,-0.1205,-0.13,-0.1245,-0.1303,-0.1259,-0.1196,-0.122,-0.1111,-0.1223,-0.1231,-0.1094,-0.1221,-0.1271,-0.129,-0.1248,0,0,0,0,0,0,-0.0924,-0.0947,-0.0954,-0.091,-0.0897,-0.0925,-0.097,-0.1039,-0.1021,-0.1126,-0.1093,-0.1167,-0.1116,-0.1214,-0.1076,-0.1075,-0.1127,-0.111,-0.1106,-0.126,-0.1278,-0.1293,-0.1256,0,0,0,0,0]},{"header":{"parameterUnit":"m.s-1","parameterCategory":2,"la1":30.2991,"la2":30.254,"lo1":-89.0895,"lo2":-89.0444,"dy":0.0017,"dx":0.0017,"nx":28,"ny":28,"refTime":"2023-07-18T21:00:00:Z","depth":"4","parameterNumber":3,"parameterNumberName":"V-component_of_CURRENTS"},"data":[0,0,0,0,0,0,0,0,0,0,0,0,0,0,0,0,0,0,0,0,0,0,0,0,0,0,0,0,0,0,0,0,0,0,0,0,0,0,0,0,0,0,0,0,0,0,0,0,0,0,0,0,0,0,0,0,0,0,-0.0424,-0.0423,0,-0.0384,-0.0384,-0.0383,-0.0345,-0.0344,-0.0344,-0.0344,-0.0309,-0.0308,-0.0308,0,0,0,0,0,0,0,0,0,0,0,0,0,-0.0451,-0.0451,-0.0424,-0.0423,-0.0423,-0.0385,-0.0384,-0.0383,-0.0345,-0.0344,-0.0344,-0.0344,-0.0309,-0.0308,-0.0307,0,0,0,0,0,0,0,0,0,0,0,0,0,-0.0426,-0.0451,-0.0424,-0.0401,-0.0399,-0.0385,-0.0384,-0.0383,-0.0345,-0.0344,-0.0344,-0.0344,-0.0309,-0.0308,-0.0307,-0.031,0,0,-0.0304,-0.0304,0,0,0,0,0,0,0,0,-0.0428,-0.0425,-0.0405,-0.0403,-0.04,-0.0371,-0.0381,-0.036,-0.0345,-0.0363,-0.0344,-0.0343,-0.0332,-0.0329,-0.0319,-0.0309,-0.0307,-0.0304,-0.0304,-0.0303,-0.0303,0,0,0,0,0,0,0,-0.0429,-0.0426,-0.0406,-0.0404,-0.0402,-0.0388,-0.0384,-0.0376,-0.0349,-0.0361,-0.0359,-0.0358,-0.033,-0.032,-0.0318,-0.0307,-0.0304,-0.0303,-0.0303,-0.0302,-0.0282,-0.0282,0,0,0,0,0,0,-0.044,-0.0428,-0.0407,-0.0405,-0.0416,-0.0388,-0.0383,-0.0379,-0.0349,-0.0344,-0.0359,-0.0357,-0.0322,-0.0319,-0.0317,-0.0291,-0.0303,-0.0302,-0.0302,-0.0282,-0.0282,-0.0282,0,0,0,0,0,0,-0.0441,-0.0438,-0.0409,-0.0418,-0.0413,-0.0388,-0.0384,-0.0378,-0.037,-0.0347,-0.0342,-0.0356,-0.0322,-0.0318,-0.0306,-0.029,-0.0302,-0.0301,-0.0282,-0.0282,-0.0282,-0.0257,0,0,0,0,0,0,-0.0442,-0.0439,-0.0446,-0.0418,-0.0413,-0.0404,-0.0384,-0.0378,-0.0371,-0.0368,-0.0343,-0.0339,-0.0321,-0.0308,-0.0305,-0.0289,-0.03,-0.0282,-0.0282,-0.0282,-0.0258,-0.0256,-0.0255,0,0,0,0,0,-0.0443,-0.0449,-0.0447,-0.0445,-0.0422,-0.0404,-0.04,-0.038,-0.0371,-0.0369,-0.0349,-0.034,-0.0306,-0.0307,-0.0304,-0.0287,-0.0281,-0.0282,-0.0282,-0.0258,-0.0256,-0.0255,0,0,0,0,0,0,-0.046,-0.0445,-0.0442,-0.0443,-0.0429,-0.0399,-0.04,-0.0385,-0.0367,-0.0367,-0.034,-0.0335,-0.0317,-0.0314,-0.0316,-0.0284,-0.0293,-0.0292,-0.0276,-0.0274,-0.0273,-0.0281,-0.0299,0,0,0,0,0,-0.0471,-0.0475,-0.0454,-0.0457,-0.0453,-0.0429,-0.0422,-0.0408,-0.0387,-0.0378,-0.0361,-0.0342,-0.0315,-0.0305,-0.0291,-0.0278,-0.0258,-0.0267,-0.0266,-0.0264,-0.0271,-0.0213,-0.0206,-0.0282,-0.0282,-0.0282,0,0,-0.0481,-0.0473,-0.0477,-0.0463,-0.0451,-0.0445,-0.0423,-0.0416,-0.0405,-0.0379,-0.0365,-0.034,-0.0313,-0.0288,-0.0281,-0.0283,-0.0233,-0.0265,-0.0263,-0.0271,-0.0212,-0.0204,-0.0198,-0.0282,-0.0282,-0.0282,0,0,-0.05,-0.0494,-0.0504,-0.0495,-0.0484,-0.0465,-0.0465,-0.044,-0.0424,-0.0409,-0.0378,-0.0341,-0.0325,-0.0282,-0.0261,-0.0248,-0.0228,-0.0253,-0.0247,-0.019,-0.0182,-0.0176,-0.0138,-0.0129,-0.0249,-0.0249,-0.0249,0,-0.0514,-0.052,-0.0504,-0.0507,-0.0506,-0.0475,-0.0481,-0.0455,-0.0429,-0.0413,-0.0409,-0.0343,-0.0315,-0.0256,-0.0246,-0.0241,-0.022,-0.0249,-0.0185,-0.0178,-0.0172,-0.0135,-0.0125,-0.0248,-0.0248,-0.0249,-0.0249,0,-0.0535,-0.0544,-0.0547,-0.0541,-0.0535,-0.0535,-0.0503,-0.0489,-0.0467,-0.0436,-0.0388,-0.0338,-0.0297,-0.0273,-0.0253,-0.0192,-0.0195,-0.0188,-0.0184,-0.0162,-0.0126,-0.0115,-0.0247,-0.0247,-0.0247,-0.0248,0,0,-0.0558,-0.0564,-0.0566,-0.0579,-0.0557,-0.0556,-0.0531,-0.0499,-0.0483,-0.0436,-0.0403,-0.0327,-0.0296,-0.0272,-0.0228,-0.0171,-0.0095,-0.0165,-0.0163,-0.012,0.0016,0.0001,0.0011,-0.0075,-0.0073,-0.0072,0.0024,0,-0.0581,-0.0607,-0.0596,-0.0617,-0.0627,-0.0596,-0.0579,-0.0543,-0.0502,-0.0462,-0.0377,-0.0336,-0.0295,-0.0272,-0.0203,-0.0128,-0.0068,-0.0123,-0.0021,-0.0019,-0.0026,0.0023,-0.0066,0.0032,0.0034,0.0036,0.0037,0,-0.0604,-0.0619,-0.0652,-0.0664,-0.0666,-0.0671,-0.0645,-0.0625,-0.0545,-0.0513,-0.0437,-0.0378,-0.0277,-0.0255,-0.0099,-0.014,-0.0066,-0.0003,0.0003,-0.0015,-0.0013,0.0004,0.0057,0.0055,0.0054,0.0052,0.0051,0,-0.0634,-0.0658,-0.0692,-0.0698,-0.0699,-0.0708,-0.0701,-0.0644,-0.0625,-0.0544,-0.0517,-0.0393,-0.0333,-0.0217,-0.0082,-0.0092,0.0082,0.0086,0.0147,0.0146,0.0119,0.0111,0.0197,0.0197,0.0197,0.0197,0.0196,0,-0.0657,-0.0686,-0.0718,-0.0738,-0.0776,-0.0759,-0.0771,-0.0741,-0.0686,-0.0653,-0.0552,-0.0488,-0.032,-0.0197,-0.0085,0.0064,0.0085,0.0156,0.0178,0.0125,0.0117,0.0127,0.0117,0.02,0.02,0.0199,0.0198,0,-0.0679,-0.07,-0.0747,-0.0778,-0.0795,-0.0823,-0.0833,-0.0825,-0.0775,-0.0727,-0.0704,-0.0548,-0.0382,-0.0218,-0.0019,0.0057,0.0198,0.0244,0.0169,0.0183,0.0221,0.0212,0.0319,0.0319,0.032,0.032,0.032,0,-0.0691,-0.072,-0.0788,-0.0825,-0.0847,-0.0884,-0.0901,-0.0874,-0.0856,-0.0752,-0.0724,-0.0558,-0.0439,-0.0161,-0.0002,0.0211,0.0237,0.0288,0.0266,0.0228,0.0238,0.0228,0.0218,0.0321,0.0321,0.0321,0.0321,0,-0.0713,-0.0747,-0.0788,-0.0862,-0.0909,-0.0949,-0.0968,-0.0957,-0.0902,-0.0865,-0.0712,-0.0552,-0.036,-0.0145,0.0018,0.0169,0.0242,0.0293,0.0293,0.0273,0.0231,0.0239,0.0229,0.0323,0.0322,0.0322,0.0322,0,-0.0737,-0.0774,-0.0834,-0.0895,-0.0958,-0.0988,-0.0993,-0.0952,-0.0925,-0.0804,-0.0748,-0.0533,-0.0399,-0.0165,-0.0012,0.0131,0.0162,0.0182,0.0188,0.0189,0.0117,0.0043,0.0106,0,0,0,0,0,-0.0754,-0.0798,-0.0857,-0.0928,-0.0985,-0.102,-0.1025,-0.1011,-0.0958,-0.0854,-0.0797,-0.061,-0.0342,-0.0214,-0.0069,-0.0027,0.0163,0.0141,0.0182,0.033,0.0328,0.0265,0,0,0,0,0,0,-0.0773,-0.0835,-0.086,-0.0938,-0.0989,-0.1046,-0.105,-0.1013,-0.0939,-0.0858,-0.0701,-0.0614,-0.0343,-0.0428,-0.0078,-0.0033,0.0003,0.0272,0.0274,0.0331,0.0329,0.0328,0.0263,0,0,0,0,0]}]]